When you browse on this site, cookies collect data to enhance your experience and personalize the content and advertising you see.
Visit our Privacy Policy to learn more. By continuing to use the site, you agree to this use of cookies and data.
  • In Österreich
  • Länderverzeichnis
  • Für 7 Tage
  • Wassertemperatur
  • Satellitenkarten
  • Wetterkarte
  • News
  • Widgets
  • user-avatar
    Anmelden

    Stündliche Wetter Semmering

    Heute, 24 Juni, Montag

    Zeit Temperatur Niederschläge Wind Luftdruck Luftfeuchtigkeit
    00:00 +13°C° 0.2 mm 2 m/S 667 mmHg 96%
    01:00 +14°C° 0 mm 2 m/S 668 mmHg 97%
    02:00 +13°C° 0.1 mm 2 m/S 667 mmHg 97%
    03:00 +13°C° 0.1 mm 2 m/S 667 mmHg 96%
    04:00 +12°C° 0.1 mm 2 m/S 667 mmHg 96%
    05:00 +13°C° 0 mm 2 m/S 668 mmHg 93%
    06:00 +15°C° 0 mm 2 m/S 668 mmHg 89%
    07:00 +16°C° 0 mm 1 m/S 669 mmHg 88%
    08:00 +19°C° 0 mm 1 m/S 669 mmHg 78%
    09:00 +19°C° 0 mm 2 m/S 669 mmHg 69%
    10:00 +21°C° 0 mm 2 m/S 670 mmHg 59%
    11:00 +21°C° 0.1 mm 2 m/S 670 mmHg 59%
    12:00 +23°C° 0.1 mm 2 m/S 670 mmHg 59%
    13:00 +23°C° 0 mm 2 m/S 670 mmHg 56%
    14:00 +23°C° 0.1 mm 2 m/S 670 mmHg 58%
    15:00 +23°C° 0.1 mm 2 m/S 670 mmHg 60%
    16:00 +21°C° 0.1 mm 2 m/S 670 mmHg 63%
    17:00 +20°C° 0.2 mm 2 m/S 670 mmHg 71%
    18:00 +20°C° 0.2 mm 1 m/S 670 mmHg 79%
    19:00 +19°C° 0.2 mm 1 m/S 670 mmHg 87%
    20:00 +18°C° 0 mm 1 m/S 669 mmHg 89%
    21:00 +16°C° 0 mm 1 m/S 669 mmHg 91%
    22:00 +14°C° 0 mm 1 m/S 669 mmHg 93%
    23:00 +14°C° 0 mm 1 m/S 669 mmHg 92%

    Morgen, 25 Juni, Dienstag

    Zeit Temperatur Niederschläge Wind Luftdruck Luftfeuchtigkeit
    00:00 +14°C° 0 mm 1 m/S 669 mmHg 92%
    01:00 +14°C° 0 mm 1 m/S 670 mmHg 92%
    02:00 +14°C° 0 mm 1 m/S 669 mmHg 92%
    03:00 +13°C° 0 mm 1 m/S 669 mmHg 92%
    04:00 +13°C° 0 mm 1 m/S 669 mmHg 92%
    05:00 +15°C° 0 mm 1 m/S 670 mmHg 88%
    06:00 +18°C° 0 mm 1 m/S 670 mmHg 83%
    07:00 +20°C° 0 mm 1 m/S 671 mmHg 79%
    08:00 +21°C° 0 mm 1 m/S 671 mmHg 72%
    09:00 +23°C° 0 mm 2 m/S 672 mmHg 64%
    10:00 +24°C° 0 mm 2 m/S 672 mmHg 57%
    11:00 +25°C° 0 mm 2 m/S 673 mmHg 55%
    12:00 +26°C° 0 mm 2 m/S 673 mmHg 53%
    13:00 +26°C° 0 mm 3 m/S 673 mmHg 51%
    14:00 +26°C° 0 mm 3 m/S 673 mmHg 52%
    15:00 +26°C° 0 mm 2 m/S 672 mmHg 54%
    16:00 +26°C° 0 mm 2 m/S 672 mmHg 55%
    17:00 +24°C° 0 mm 2 m/S 672 mmHg 64%
    18:00 +23°C° 0 mm 2 m/S 672 mmHg 73%
    19:00 +22°C° 0 mm 1 m/S 671 mmHg 82%
    20:00 +20°C° 0 mm 1 m/S 671 mmHg 86%
    21:00 +19°C° 0 mm 1 m/S 671 mmHg 91%
    22:00 +18°C° 0 mm 1 m/S 671 mmHg 95%
    23:00 +16°C° 0 mm 1 m/S 671 mmHg 95%

    übermorgen, 26 Juni, Mittwoch

    Zeit Temperatur Niederschläge Wind Luftdruck Luftfeuchtigkeit
    00:00 +16°C° 0 mm 1 m/S 671 mmHg 95%
    01:00 +16°C° 0 mm 1 m/S 671 mmHg 96%
    02:00 +16°C° 0 mm 1 m/S 671 mmHg 95%
    03:00 +15°C° 0 mm 1 m/S 671 mmHg 95%
    04:00 +15°C° 0 mm 1 m/S 671 mmHg 94%
    05:00 +18°C° 0 mm 1 m/S 671 mmHg 88%
    06:00 +20°C° 0 mm 1 m/S 672 mmHg 82%
    07:00 +22°C° 0 mm 1 m/S 672 mmHg 76%
    08:00 +24°C° 0 mm 1 m/S 673 mmHg 66%
    09:00 +26°C° 0 mm 1 m/S 673 mmHg 57%
    10:00 +28°C° 0 mm 1 m/S 674 mmHg 47%
    11:00 +29°C° 0 mm 1 m/S 674 mmHg 44%
    12:00 +30°C° 0 mm 1 m/S 674 mmHg 42%
    13:00 +30°C° 0 mm 2 m/S 674 mmHg 39%
    14:00 +30°C° 0 mm 2 m/S 674 mmHg 41%
    15:00 +30°C° 0 mm 2 m/S 673 mmHg 43%
    16:00 +29°C° 0 mm 2 m/S 673 mmHg 46%
    17:00 +27°C° 0 mm 1 m/S 672 mmHg 56%
    18:00 +25°C° 0 mm 1 m/S 671 mmHg 66%
    19:00 +23°C° 0 mm 1 m/S 671 mmHg 75%
    20:00 +22°C° 0 mm 1 m/S 671 mmHg 77%
    21:00 +21°C° 0 mm 1 m/S 670 mmHg 79%
    22:00 +19°C° 0 mm 1 m/S 670 mmHg 81%
    23:00 +19°C° 0 mm 1 m/S 670 mmHg 78%

    27 Juni, Donnerstag

    Zeit Temperatur Niederschläge Wind Luftdruck Luftfeuchtigkeit
    00:00 +19°C° 0 mm 1 m/S 670 mmHg 76%
    01:00 +19°C° 0 mm 1 m/S 669 mmHg 73%
    02:00 +19°C° 0 mm 1 m/S 669 mmHg 71%
    03:00 +19°C° 0 mm 1 m/S 669 mmHg 69%
    04:00 +19°C° 0 mm 1 m/S 669 mmHg 67%
    05:00 +20°C° 0 mm 2 m/S 669 mmHg 67%
    06:00 +21°C° 0 mm 2 m/S 669 mmHg 68%
    07:00 +24°C° 0 mm 2 m/S 669 mmHg 69%
    08:00 +25°C° 0 mm 2 m/S 670 mmHg 65%
    09:00 +26°C° 0 mm 3 m/S 670 mmHg 60%
    10:00 +27°C° 0 mm 3 m/S 670 mmHg 56%
    11:00 +26°C° 0.9 mm 3 m/S 670 mmHg 60%
    12:00 +26°C° 0.9 mm 3 m/S 670 mmHg 64%
    13:00 +25°C° 0.9 mm 4 m/S 670 mmHg 67%
    14:00 +25°C° 0.7 mm 3 m/S 669 mmHg 70%
    15:00 +24°C° 0.7 mm 3 m/S 669 mmHg 72%
    16:00 +22°C° 0.7 mm 3 m/S 669 mmHg 75%
    17:00 +21°C° 0.2 mm 3 m/S 668 mmHg 77%
    18:00 +20°C° 0.2 mm 2 m/S 668 mmHg 79%
    19:00 +18°C° 0.2 mm 2 m/S 668 mmHg 81%
    20:00 +17°C° 0 mm 2 m/S 668 mmHg 80%
    21:00 +15°C° 0 mm 2 m/S 668 mmHg 80%
    22:00 +14°C° 0 mm 2 m/S 668 mmHg 80%
    23:00 +13°C° 0 mm 2 m/S 668 mmHg 79%

    28 Juni, Freitag

    Zeit Temperatur Niederschläge Wind Luftdruck Luftfeuchtigkeit
    00:00 +12°C° 0 mm 2 m/S 668 mmHg 78%
    01:00 +10°C° 0 mm 2 m/S 667 mmHg 77%
    02:00 +9°C° 0 mm 2 m/S 667 mmHg 77%
    03:00 +9°C° 0 mm 2 m/S 667 mmHg 77%
    04:00 +9°C° 0 mm 2 m/S 667 mmHg 76%
    05:00 +10°C° 0 mm 2 m/S 667 mmHg 71%
    06:00 +13°C° 0 mm 2 m/S 668 mmHg 65%
    07:00 +15°C° 0 mm 2 m/S 668 mmHg 59%
    08:00 +17°C° 0 mm 2 m/S 669 mmHg 52%
    09:00 +18°C° 0 mm 2 m/S 669 mmHg 46%
    10:00 +20°C° 0 mm 3 m/S 670 mmHg 39%
    11:00 +21°C° 0 mm 3 m/S 669 mmHg 38%
    12:00 +21°C° 0 mm 3 m/S 669 mmHg 36%
    13:00 +22°C° 0 mm 4 m/S 669 mmHg 35%
    14:00 +22°C° 0 mm 4 m/S 669 mmHg 37%
    15:00 +22°C° 0 mm 4 m/S 669 mmHg 40%
    16:00 +21°C° 0 mm 4 m/S 668 mmHg 42%
    17:00 +20°C° 0 mm 3 m/S 668 mmHg 52%
    18:00 +18°C° 0 mm 2 m/S 668 mmHg 61%
    19:00 +17°C° 0 mm 2 m/S 667 mmHg 71%
    20:00 +15°C° 0 mm 2 m/S 667 mmHg 75%
    21:00 +14°C° 0 mm 1 m/S 667 mmHg 79%
    22:00 +12°C° 0 mm 1 m/S 667 mmHg 83%
    23:00 +12°C° 0 mm 1 m/S 667 mmHg 83%

    29 Juni, Samstag

    Zeit Temperatur Niederschläge Wind Luftdruck Luftfeuchtigkeit
    00:00 +11°C° 0 mm 1 m/S 667 mmHg 84%
    01:00 +11°C° 0 mm 1 m/S 667 mmHg 85%
    02:00 +10°C° 0 mm 1 m/S 667 mmHg 85%
    03:00 +10°C° 0 mm 1 m/S 666 mmHg 85%
    04:00 +9°C° 0 mm 1 m/S 666 mmHg 86%
    05:00 +11°C° 0 mm 1 m/S 667 mmHg 79%
    06:00 +13°C° 0 mm 2 m/S 667 mmHg 72%
    07:00 +15°C° 0 mm 2 m/S 668 mmHg 64%
    08:00 +16°C° 0 mm 2 m/S 668 mmHg 58%
    09:00 +18°C° 0 mm 2 m/S 669 mmHg 51%
    10:00 +19°C° 0 mm 2 m/S 669 mmHg 44%
    11:00 +20°C° 0 mm 2 m/S 669 mmHg 42%
    12:00 +21°C° 0 mm 2 m/S 669 mmHg 39%
    13:00 +23°C° 0 mm 2 m/S 669 mmHg 37%
    14:00 +21°C° 0 mm 2 m/S 669 mmHg 39%
    15:00 +21°C° 0 mm 2 m/S 669 mmHg 41%
    16:00 +21°C° 0 mm 2 m/S 668 mmHg 43%
    17:00 +19°C° 0 mm 2 m/S 668 mmHg 53%
    18:00 +18°C° 0 mm 1 m/S 668 mmHg 63%
    19:00 +15°C° 0 mm 1 m/S 668 mmHg 73%
    20:00 +14°C° 0 mm 1 m/S 668 mmHg 75%
    21:00 +12°C° 0 mm 1 m/S 668 mmHg 77%
    22:00 +11°C° 0 mm 1 m/S 667 mmHg 78%
    23:00 +10°C° 0 mm 1 m/S 667 mmHg 78%
    Mehr zeigen